TimeCST,TemperatureF,Dew PointF,Humidity,Sea Level PressureIn,VisibilityMPH,Wind Direction,Wind SpeedMPH,Gust SpeedMPH,PrecipitationIn,Events,Conditions,WindDirDegrees,DateUTC
12:51 AM,44.1,42.1,93,30.11,10.0,Calm,Calm,-,N/A,,Clear,0,2013-11-09 06:51:00
1:51 AM,45.0,42.1,90,30.10,10.0,Calm,Calm,-,N/A,,Clear,0,2013-11-09 07:51:00
2:51 AM,43.0,39.9,89,30.09,10.0,SSW,5.8,-,N/A,,Clear,210,2013-11-09 08:51:00
3:51 AM,45.0,39.0,80,30.08,10.0,SSW,6.9,-,N/A,,Clear,200,2013-11-09 09:51:00
4:51 AM,44.1,39.0,82,30.09,10.0,SSW,4.6,-,N/A,,Clear,200,2013-11-09 10:51:00
5:51 AM,45.0,39.9,82,30.09,10.0,South,3.5,-,N/A,,Clear,190,2013-11-09 11:51:00
6:51 AM,43.0,39.0,86,30.10,10.0,SSW,6.9,-,N/A,,Clear,200,2013-11-09 12:51:00
7:51 AM,46.9,42.1,83,30.11,10.0,Calm,Calm,-,N/A,,Clear,0,2013-11-09 13:51:00
8:51 AM,53.1,44.1,71,30.11,10.0,SSW,8.1,-,N/A,,Clear,210,2013-11-09 14:51:00
9:51 AM,60.1,46.9,62,30.11,10.0,SW,13.8,-,N/A,,Clear,220,2013-11-09 15:51:00
10:51 AM,63.0,48.0,58,30.09,10.0,WSW,10.4,-,N/A,,Clear,240,2013-11-09 16:51:00
11:51 AM,66.9,48.9,52,30.08,10.0,South,8.1,17.3,N/A,,Clear,190,2013-11-09 17:51:00
12:51 PM,70.0,50.0,49,30.05,10.0,SSW,5.8,-,N/A,,Clear,200,2013-11-09 18:51:00
1:51 PM,72.0,51.1,48,30.03,10.0,SSW,8.1,-,N/A,,Clear,200,2013-11-09 19:51:00
2:51 PM,73.0,51.1,46,30.02,10.0,SSW,9.2,-,N/A,,Clear,200,2013-11-09 20:51:00
3:51 PM,73.9,51.1,45,30.02,10.0,South,9.2,-,N/A,,Clear,190,2013-11-09 21:51:00
4:51 PM,72.0,52.0,49,30.04,10.0,South,12.7,-,N/A,,Clear,180,2013-11-09 22:51:00
5:51 PM,66.0,52.0,60,30.06,10.0,South,5.8,-,N/A,,Clear,180,2013-11-09 23:51:00
6:51 PM,62.1,51.1,67,30.09,10.0,South,8.1,-,N/A,,Clear,180,2013-11-10 00:51:00
7:51 PM,59.0,51.1,75,30.11,10.0,South,4.6,-,N/A,,Clear,190,2013-11-10 01:51:00
8:51 PM,54.0,48.9,83,30.12,10.0,South,5.8,-,N/A,,Clear,180,2013-11-10 02:51:00
9:51 PM,54.0,48.9,83,30.13,10.0,South,3.5,-,N/A,,Clear,180,2013-11-10 03:51:00
10:51 PM,51.1,48.0,89,30.14,10.0,South,6.9,-,N/A,,Clear,190,2013-11-10 04:51:00
11:51 PM,53.1,48.0,83,30.14,10.0,South,6.9,-,N/A,,Clear,190,2013-11-10 05:51:00